This is the latest recevied weather packets stored in our database for station/object FW7644. If no packets are shown the sender has not sent any weather packets the latest 10 day(s).
| Time | Temp. | Humidity | Pressure | Rain* | Wind** | Luminosity | Snow |
|---|---|---|---|---|---|---|---|
| 1777477725 | 15° C | 96% | 1018.9 hPa | 2.79 mm | - | - | - |
| 1777477423 | 15° C | 95% | 1019.3 hPa | 2.29 mm | - | - | - |
| 1777477121 | 15° C | 95% | 1019.4 hPa | 1.52 mm | - | - | - |
| 1777476819 | 15° C | 95% | 1019.2 hPa | 1.52 mm | - | - | - |
| 1777476517 | 15° C | 95% | 1019.2 hPa | 1.78 mm | - | - | - |
| 1777476216 | 15° C | 95% | 1019.4 hPa | 1.78 mm | - | - | - |
| 1777475914 | 15° C | 95% | 1019.4 hPa | 2.79 mm | - | - | - |
| 1777475612 | 15° C | 95% | 1019.5 hPa | 2.79 mm | - | - | - |
| 1777475310 | 15° C | 95% | 1019.9 hPa | 2.54 mm | - | - | - |
| 1777475008 | 15° C | 95% | 1020 hPa | 2.29 mm | - | - | - |
| 1777474707 | 15° C | 95% | 1020 hPa | 2.03 mm | - | - | - |
| 1777474405 | 15° C | 95% | 1020 hPa | 2.03 mm | - | - | - |
| 1777474104 | 15° C | 95% | 1020.2 hPa | 1.78 mm | - | - | - |
| 1777473802 | 15° C | 95% | 1020.1 hPa | 1.78 mm | - | - | - |
| 1777473500 | 15° C | 95% | 1020.1 hPa | 1.52 mm | - | - | - |
| 1777473198 | 15° C | 95% | 1020.5 hPa | 1.52 mm | - | - | - |
| 1777472897 | 15° C | 95% | 1020.5 hPa | 1.52 mm | - | - | - |
| 1777472595 | 15° C | 95% | 1020.9 hPa | 1.27 mm | - | - | - |
| 1777472293 | 15° C | 95% | 1021.1 hPa | 1.27 mm | - | - | - |
| 1777471991 | 15° C | 94% | 1020.7 hPa | 0.51 mm | - | - | - |
| 1777471690 | 15.56° C | 94% | 1020.7 hPa | 0.51 mm | - | - | - |
| 1777471388 | 15.56° C | 94% | 1020.9 hPa | 0.51 mm | - | - | - |
| 1777471086 | 15.56° C | 94% | 1020.9 hPa | 0.51 mm | - | - | - |
| 1777470784 | 15.56° C | 95% | 1020.9 hPa | 0.51 mm | - | - | - |
| 1777470482 | 15.56° C | 94% | 1020.8 hPa | 0.76 mm | - | - | - |
* Rain latest hour (hover to see other rain measurements)
** Current wind speed in m/s (hover to see current wind gust speed)